Fort Eustis, VA

7:42 PM EST on December 10, 2016 (GMT -0500)
Felker Army Air Field

Weather History for KFAF - November, 2012

Change the Weather History Date:

Thursday, November 22, 2012

  Actual Average Record
Temperature  
Mean Temperature 50 °F -  
Max Temperature 59 °F 58 °F 73 °F (1999)
Min Temperature 40 °F 40 °F 24 °F (2000)
Degree Days  
Heating Degree Days 15    
Moisture  
Dew Point 38 °F    
Average Humidity 71    
Maximum Humidity 89    
Minimum Humidity 45    
Precipitation  
Precipitation 0.00 in - - ()
Sea Level Pressure  
Sea Level Pressure 30.18 in    
Wind  
Wind Speed 5 mph (North)    
Max Wind Speed 10 mph    
Max Gust Speed 17 mph    
Visibility 10 miles    
Events      
Averages and records for this station are not official NWS values.
T = Trace of Precipitation, MM = Missing Value Source: NWS Daily Summary

Daily Weather History Graph

Daily Weather History Graph

Search for Another Location

Airport or City:

Trip Planner

Search our weather history database for the weather conditions in past years. The results will help you decide how hot, cold, wet, or windy it might be!

Date:

Astronomy

Nov. 22, 2012 Rise Set
Actual Time 6:53 AM EST 4:52 PM EST
Civil Twilight 6:24 AM EST 5:20 PM EST
Nautical Twilight 5:53 AM EST 5:52 PM EST
Astronomical Twilight 5:21 AM EST 6:23 PM EST
Moon 1:30 PM EST (11/22) 1:17 AM EST (11/22)
Length of Visible Light 10h 55m
Length of Day
9h 59m
Waxing Gibbous, 71% of the Moon is Illuminated
Nov 22
Waxing Gibbous
Nov 28
Full
Dec 6
Last Quarter
Dec 13
New
Dec 20
First Quarter

Hourly Weather History & Observations

Time (EST) Temp. Windchill Dew Point Humidity Pressure Visibility Wind Dir Wind Speed Gust Speed Precip Events Conditions
12:55 AM 43.9 °F 41.3 °F 39.7 °F 85% 30.17 in 10.0 mi NNE 4.6 mph - N/A   Clear
1:55 AM 43.7 °F 40.3 °F 39.9 °F 87% 30.17 in 10.0 mi North 5.8 mph - N/A   Clear
2:55 AM 43.3 °F 39.9 °F 39.2 °F 85% 30.16 in 10.0 mi North 5.8 mph - N/A   Clear
3:55 AM 42.4 °F 38.8 °F 37.9 °F 84% 30.16 in 10.0 mi NNW 5.8 mph - N/A   Clear
4:55 AM 43.2 °F 41.5 °F 38.3 °F 83% 30.17 in 10.0 mi Variable 3.5 mph - N/A   Clear
5:55 AM 42.8 °F 38.0 °F 38.1 °F 84% 30.17 in 10.0 mi North 8.1 mph - N/A   Clear
6:55 AM 43.3 °F 38.1 °F 37.9 °F 81% 30.19 in 10.0 mi North 9.2 mph - N/A   Clear
7:55 AM 44.8 °F 39.4 °F 37.6 °F 76% 30.21 in 10.0 mi North 10.4 mph - N/A   Clear
8:55 AM 47.7 °F - 39.6 °F 73% 30.23 in 10.0 mi NNE 5.8 mph 17.3 mph N/A   Clear
9:55 AM 50.7 °F - 39.7 °F 66% 30.23 in 10.0 mi NNE 9.2 mph - N/A   Clear
10:55 AM 54.1 °F - 39.0 °F 57% 30.22 in 10.0 mi NNE 8.1 mph - N/A   Clear
11:55 AM 56.5 °F - 37.4 °F 49% 30.19 in 10.0 mi NNE 9.2 mph - N/A   Clear
12:55 PM 58.6 °F - 38.1 °F 46% 30.17 in 10.0 mi North 8.1 mph - N/A   Clear
1:55 PM 59.0 °F - 37.8 °F 45% 30.16 in 10.0 mi NNW 9.2 mph - N/A   Clear
2:55 PM 58.3 °F - 38.5 °F 48% 30.16 in 10.0 mi North 5.8 mph - N/A   Clear
3:55 PM 57.6 °F - 38.8 °F 50% 30.17 in 10.0 mi North 5.8 mph - N/A   Clear
4:55 PM 54.1 °F - 37.0 °F 52% 30.17 in 10.0 mi NNE 4.6 mph - N/A   Clear
5:55 PM 49.3 °F - 37.9 °F 65% 30.17 in 10.0 mi Calm Calm - N/A   Clear
6:55 PM 45.0 °F - 37.4 °F 75% 30.18 in 10.0 mi Calm Calm - N/A   Clear
7:55 PM 43.7 °F - 38.3 °F 81% 30.18 in 10.0 mi Calm Calm - N/A   Clear
8:55 PM 44.6 °F - 38.3 °F 79% 30.17 in 10.0 mi Calm Calm - N/A   Clear
9:55 PM 42.6 °F - 38.3 °F 85% 30.17 in 10.0 mi Calm Calm - N/A   Clear
10:55 PM 41.0 °F - 37.9 °F 89% 30.16 in 10.0 mi Calm Calm - N/A   Clear
11:55 PM 40.6 °F - 37.4 °F 88% 30.15 in 10.0 mi Calm Calm - N/A   Clear